Home   Weather   Bocholt   Past weeks

Flag for Germany Past Weather in Bocholt, North Rhine-Westphalia, Germany — Yesterday and Last 2 Weeks

Now
43 °F

Passing clouds.


Feels Like: 40 °F
Forecast: 39 / 58 °F
Wind: 5 mph from Northwest

Location: Niederrhein

Current Time: Apr 23, 2017 at 10:03:47 am

Latest Report: Apr 23, 2017 at 9:20 am


Visibility: N/A

Pressure: 30.30 "Hg

Humidity: 76%

Dew Point: 36 °F

Location of BocholtLocation

Past Weather in Bocholt — Graph

°F

Bocholt Temperature Yesterday

Maximum temperature yesterday: 52 °F (at 1:20 pm)
Minimum temperature yesterday: 41 °F (at 11:50 pm)
Average temperature yesterday: 47 °F

High & Low Weather Summary for the Past Weeks

 TemperatureHumidityPressure
High73 °F (Apr 9, 4:50 pm)100% (Apr 9, 5:20 am)30.63 "Hg (Apr 9, 5:20 am)
Low27 °F (Apr 20, 6:50 am)23% (Apr 9, 5:50 pm)29.89 "Hg (Apr 15, 6:20 am)
Average48 °F66%30.22 "Hg
* Reported Apr 8 8:20 am — Apr 23 8:20 am, Bocholt, Weather by CustomWeather, © 2017

Note: Actual official high and low records may vary slightly from our data, if they occured in-between our weather recording intervals... More about our weather records

Advertising

Bocholt Weather History for the Previous 24 Hours

Scroll right to see more
 ConditionsComfort  
Time TempWeatherWind HumidityBarometerVisibility
8:20 am
Sun, Apr 23
43 °FSunny.8 mph81%30.30 "Hg10 mi
7:50 am41 °FSunny.7 mph81%30.30 "Hg10 mi
7:20 am39 °FClear.3 mph81%30.30 "Hg10 mi
6:50 am39 °FClear.3 mph87%30.27 "Hg10 mi
6:20 am39 °FClear.3 mph87%30.27 "Hg10 mi
5:50 am39 °FClear.3 mph87%30.27 "Hg10 mi
5:20 am39 °FClear.5 mph87%30.27 "Hg10 mi
4:50 am37 °FClear.3 mph93%30.27 "Hg10 mi
11:50 pm
Sat, Apr 22
41 °FClear.3 mph76%30.30 "Hg10 mi
11:20 pm43 °FPassing clouds.6 mph71%30.30 "HgN/A
10:50 pm43 °FPassing clouds.5 mph66%30.30 "HgN/A
10:20 pm45 °FPassing clouds.5 mph61%30.27 "HgN/A
9:50 pm45 °FClear.3 mph61%30.27 "Hg10 mi
9:20 pm45 °FSunny.3 mph66%30.27 "Hg10 mi
8:20 pm46 °FPassing clouds.7 mph62%30.27 "HgN/A
7:50 pm48 °FPassing clouds.9 mph54%30.27 "HgN/A
7:20 pm48 °FPassing clouds.8 mph50%30.27 "HgN/A
6:50 pm48 °FScattered clouds.9 mph54%30.27 "HgN/A
6:20 pm50 °FPassing clouds.12 mph47%30.27 "HgN/A
5:50 pm50 °FPassing clouds.12 mph47%30.27 "HgN/A
5:20 pm50 °FSunny.9 mph54%30.27 "Hg10 mi
4:50 pm52 °FPassing clouds.8 mph50%30.27 "HgN/A
4:20 pm50 °FPassing clouds.10 mph62%30.27 "HgN/A
3:50 pm50 °FPassing clouds.9 mph54%30.27 "HgN/A
3:20 pm50 °FScattered clouds.10 mph58%30.27 "HgN/A
2:50 pm50 °FScattered clouds.9 mph54%30.30 "HgN/A
2:20 pm50 °FSunny.7 mph58%30.30 "Hg10 mi
1:50 pm48 °FScattered clouds.8 mph62%30.30 "HgN/A
1:20 pm52 °FSunny.9 mph50%30.30 "Hg10 mi
12:50 pm50 °FPartly sunny.5 mph54%30.30 "HgN/A
12:20 pm50 °FSunny.7 mph54%30.30 "Hg10 mi
11:50 am48 °FScattered clouds.9 mph66%30.30 "HgN/A
11:20 am50 °FPartly sunny.8 mph54%30.30 "HgN/A
10:50 am50 °FPartly sunny.7 mph54%30.30 "HgN/A
10:20 am48 °FPartly sunny.9 mph66%30.30 "HgN/A
Weather by CustomWeather, © 2017

See weather overviewHow to use our weather pages